SL-8 DEB, 3038

Orbit data source: Space-Track

SL-8 DEB, 3038 is space debris in LEO originally from a launch on Mon, 15 Mar 1965 UTC launched from the Tyuratam Missile And Space Complex (TTMTR). Debris objects in space refer to the collection of defunct objects orbiting the Earth. Examples of debris include non-operational satellites, rocket bodies, and fragments generated from explosions, collisions, or faulty payload assembly.

Loading next visibility...
Identifier
3038, 1965-020EN
Orbit
LEO
Last TLE update
17 hours ago
Origin
Manufacturer
Unknown
Mission
Spacecraft
Bus & Motor
Unknown
Mass
Unknown
Launch date (UTC)
1965-03-15 (60 years ago)
Launch vehicle
Unknown
Launch site
Tyuratam Missile And Space Complex (TTMTR)
Object type
Payload
Rocket body
Debris
Shape & HBR
Unknown
Radar Cross Section
Medium (>0.1 m² and <1 m²)

Expand to show TLE details & history

TLE from 17 hours ago
0 SL-8 DEB
1 03038U 65020EN  25181.38864842  .00001173  00000-0  30789-3 0  9999
2 03038  56.1600 170.7000 0404293 238.7822 117.2957 14.16282478175865
Epoch: 2025-06-30T09:19Z
TLE epoch observation values (Epoch: 2025-06-30T09:19:39.223Z)
Latitude
Longitude
112.08741°
Altitude
981.948 km
Speed
7.288 km/s
True Right ascension
11h 22m 48s
True Declination
0° 00' 00"
Sunlit
Object was in daylight at epoch
Visualization orbit readout
Latitude
15.37035°
Longitude
120.08856°
Altitude
1,051.762 km
Speed
7.219 km/s
Apparent Right ascension
09h 13m 21s
Apparent Declination
-28° 29' 50"
Sunlit
Object is in daylight
Visualization observer readout
Local Sidereal Time
13:58:38
Azimuth
236.717° WSW
Elevation
-5.18°
Doppler factor
1
Orbital elements
Apogee altitude
1,129.477 km
Perigee altitude
546.011 km
Semi-major axis
7,215.881 km
Eccentricity
0.04043
Inclination
56.16°
RAAN
170.7°
Arg. of periapsis
238.7822°
True anomaly
Unknown
Mean anomaly
117.2957°
Eccentric anomaly
Unknown
Mean motion
3.54086 °/min
Orbital period
101.67 mins
BSTAR
0.00030789
Loading maneuver chart data...
Loading SW <> Apogee altitude chart data...
Loading historical data...
Loading historical data...
Loading historical data...
Loading historical data...
Loading historical data...
Loading historical data...
Loading historical data...

SL-8 DEB Visibility forecast

Observer location: undefined°, undefined°

Span
Click to sort rows by Start time (UTC) header in descending order
Start Az.
Max El. time (UTC)
Max El. Az.
Max El.
End time (UTC)
End Az.
13 mins2025-07-01 02:26:31.051Z243.881° WSW2025-07-01 02:32:31.051Z304.703° NW40.107°2025-07-01 02:39:31.051Z38.984° NE
10 mins2025-07-01 04:15:31.051Z294.985° NW2025-07-01 04:20:31.051Z344.779° N23.218°2025-07-01 04:25:31.051Z33.306° NE
8 mins2025-07-01 06:04:31.051Z326.993° NNW2025-07-01 06:08:31.051Z5.961° NNE19.838°2025-07-01 06:12:31.051Z46.969° ENE
10 mins2025-07-01 07:51:31.051Z329.95° NNW2025-07-01 07:56:31.051Z33.998° NE31.452°2025-07-01 08:01:31.051Z94.936° ESE
10 mins2025-07-01 09:37:31.051Z306.597° NW2025-07-01 09:42:31.051Z232.618° WSW41.059°2025-07-01 09:47:31.051Z154.095° SSE
11 mins2025-07-02 00:25:31.051Z181.643° SSW2025-07-02 00:30:31.051Z115.768° SE32.629°2025-07-02 00:36:31.051Z58.492° ENE
11 mins2025-07-02 02:10:31.051Z247.32° WSW2025-07-02 02:15:31.051Z306.692° NW39.959°2025-07-02 02:21:31.051Z36.191° NE
|